User: anonymous   Login
Location: Unspecified
(0.0000°N, 0.0000°E)
Time: 01:10:13
(UTC+00:00)
Language:

ITUPSAT 1 - Orbit

View from above orbital plane
View from above orbital plane
View from above satellite
View from above satellite

Ground track
Ground track

The orbit data is extracted from the following two-line orbital elements,

1 35935U 09051E   18016.85896918  .00000063  00000-0  25616-4 0  9993
2 35935  98.5372 166.2887 0007446 329.0876  30.9881 14.55403093441311
Epoch (UTC): 16 January 2018 20:36:54
Eccentricity: 0.0007446
inclination: 98.5372°
perigee height: 703 km
apogee height: 713 km
right ascension of ascending node: 166.2887°
argument of perigee: 329.0876°
revolutions per day: 14.55403093
mean anomaly at epoch: 30.9881°
orbit number at epoch: 44131

The dashed part of the orbit path shows where the satellite is in the earth's shadow,  

DLR